Showing default

COSMOS 534, 6269

Orbit data source: Space-Track

COSMOS 534, 6269 is a payload satellite owned by OKB-10 (CIS) in LEO that was launched on Wed, 01 Nov 1972 UTC via a KOSMOS 11K65M launch vehicle from the Plesetsk Missile And Space Complex (PKMTR). Payload-class satellites include a variety of spacecraft equipped with specific instruments for various scientific and technological missions. These include communications satellites like Starlink; space stations such as the ISS; scientific satellites like the Hubble; Earth observation satellites from companies like Planet Labs, Umbra, and HawkEye 360; GPS; miniature CubeSats for education and research; and military/defense satellites.

Loading next visibility...
Identifier
6269, 1972-087G
Orbit
LEO
Country
Flag of CISCIS
Related business
Manufacturer
OKB-10
Mission
Spacecraft
Bus & Motor
STRELA-1 11F625, Unknown motor
Mass
60 kg wet, 60 kg dry
Launch date (UTC)
1972-11-01 (54 years ago)
Launch vehicle
KOSMOS 11K65M
Launch site
Plesetsk Missile And Space Complex (PKMTR)
Object type
Payload
Rocket body
Debris
Shape & HBR
Unknown
Radar Cross Section
Medium (>0.1 m² and <1 m²)

Expand to show TLE details & history
Last TLE update: 2 days ago

TLE from 2 days ago
0 COSMOS 534
1  6269U 72087G   26171.35094079 -.00000012  00000-0  20553-4 0  9994
2  6269  74.0359  34.5049 0076126 129.3075 343.3278 12.63678192474030
Epoch: 2026-06-20T08:25Z
TLE epoch observation values (Epoch: 2026-06-20T08:25:21.284Z)
Latitude
62.84272°
Longitude
145.89738°
Altitude
1,361.473 km
Speed
7.21 km/s
True Right ascension
12h 03m 12s
True Declination
62° 42' 49"
Sunlit
Object was in daylight at epoch
Visualization orbit readout
Latitude
Unknown
Longitude
Unknown
Altitude
Unknown
Speed
Unknown
Apparent Right ascension
Unknown
Apparent Declination
Unknown
Sunlit
N/A
Visualization observer readout
Local Sidereal Time
23:08:14
Azimuth
Unknown
Elevation
Unknown
Doppler factor
Unknown
Orbital elements
Apogee altitude
1,464.873 km
Perigee altitude
1,346.363 km
Semi-major axis
7,783.755 km
Eccentricity
0.00761
Inclination
74.0359°
RAAN
34.5049°
Arg. of periapsis
129.3075°
True anomaly
343.07523°
Mean anomaly
343.3278°
Eccentric anomaly
343.20175°
Mean motion
3.16053 °/min
Orbital period
113.91 mins
BSTAR
0.000020553
Loading maneuver chart data...
Computing Atmospheric mass density...
Loading historical data...
Loading historical data...
Loading historical data...
Loading historical data...
Loading historical data...
Loading historical data...
Loading historical data...

Documentation

Showing up to 5 results
|